カタログに戻る

SL-6 R/B(2)

運用中HEO
NORAD 16533·ROCKET BODY·🇷🇺 Russia

打ち上げ Feb 1, 1986 から Plesetsk Cosmodrome

Loading…

次のパス (今後24時間)

TLE

最新Source: Space-Track

元期: Sep 14, 2026, 19:01 UTC

1 16533U 86011F   26257.79304102 -.00000355  00000-0  00000-0 0  9996
2 16533  71.0530 119.0089 5226722 359.6067 183.2763  2.04054715285885

AllMySatでSL-6 R/B(2)をリアルタイム追跡

Download on the App Store